Otterbourne, United Kingdom

9:43 PM GMT on February 23, 2017 (GMT +0000)
Southampton International

Weather History for EGHI - December, 2012

Change the Weather History Date:

Sunday, December 9, 2012

  Actual Average Record
Temperature  
Mean Temperature 44 °F -  
Max Temperature 46 °F 45 °F 55 °F (1997)
Min Temperature 41 °F 36 °F 19 °F (2010)
Degree Days  
Heating Degree Days 22    
Moisture  
Dew Point 38 °F    
Average Humidity 78    
Maximum Humidity 87    
Minimum Humidity 71    
Precipitation  
Precipitation 0.00 in - - ()
Sea Level Pressure  
Sea Level Pressure 30.10 in    
Wind  
Wind Speed 8 mph ()    
Max Wind Speed 15 mph    
Max Gust Speed 26 mph    
Visibility 6.2 miles    
Events      
Averages and records for this station are not official NWS values.
T = Trace of Precipitation, MM = Missing Value Source: Averaged Metar Reports

Daily Weather History Graph

Daily Weather History Graph

Search for Another Location

Airport or City:

Trip Planner

Search our weather history database for the weather conditions in past years. The results will help you decide how hot, cold, wet, or windy it might be!

Date:

Astronomy

Dec. 09, 2012 Rise Set
Actual Time 7:56 AM GMT 3:59 PM GMT
Civil Twilight 7:17 AM GMT 4:38 PM GMT
Nautical Twilight 6:35 AM GMT 5:20 PM GMT
Astronomical Twilight 5:55 AM GMT 6:01 PM GMT
Moon 2:49 AM GMT (12/9) 1:17 PM GMT (12/9)
Length of Visible Light 9h 21m
Length of Day
8h 03m
Waning Crescent, 20% of the Moon is Illuminated
Dec 9
Waning Crescent
Dec 13
New
Dec 20
First Quarter
Dec 28
Full
Jan 5
Last Quarter

Hourly Weather History & Observations

Time (GMT) Temp. Windchill Dew Point Humidity Pressure Visibility Wind Dir Wind Speed Gust Speed Precip Events Conditions
7:20 AM 44.6 °F 41.4 °F 41.0 °F 87% 30.18 in 6.2 mi WSW 5.8 mph - N/A   Light Drizzle
7:50 AM 44.6 °F 41.4 °F 41.0 °F 87% 30.18 in 6.2 mi WSW 5.8 mph - N/A   Mostly Cloudy
8:20 AM 44.6 °F 40.7 °F 41.0 °F 87% 30.18 in 6.2 mi West 6.9 mph - N/A   Mostly Cloudy
8:50 AM 44.6 °F 39.7 °F 41.0 °F 87% 30.18 in 6.2 mi West 9.2 mph - N/A   Mostly Cloudy
9:20 AM 44.6 °F 39.7 °F 41.0 °F 87% 30.15 in 6.2 mi West 9.2 mph - N/A   Scattered Clouds
9:50 AM 46.4 °F 41.1 °F 39.2 °F 76% 30.15 in 6.2 mi West 11.5 mph 26.5 mph N/A   Scattered Clouds
10:20 AM 46.4 °F 41.1 °F 39.2 °F 76% 30.15 in 6.2 mi West 11.5 mph - N/A   Scattered Clouds
10:50 AM 46.4 °F 41.5 °F 39.2 °F 76% 30.15 in 6.2 mi West 10.4 mph - N/A   Scattered Clouds
11:20 AM 46.4 °F 41.1 °F 39.2 °F 76% 30.15 in 6.2 mi West 11.5 mph - N/A   Mostly Cloudy
11:50 AM 46.4 °F 41.5 °F 39.2 °F 76% 30.12 in 6.2 mi West 10.4 mph - N/A   Mostly Cloudy
12:20 PM 46.4 °F 41.5 °F 39.2 °F 76% 30.12 in 6.2 mi West 10.4 mph - N/A   Mostly Cloudy
12:50 PM 46.4 °F 40.1 °F 37.4 °F 71% 30.09 in 6.2 mi West 15.0 mph - N/A   Scattered Clouds
1:20 PM 46.4 °F 41.1 °F 37.4 °F 71% 30.09 in 6.2 mi West 11.5 mph - N/A   Scattered Clouds
1:50 PM 46.4 °F 41.1 °F 37.4 °F 71% 30.06 in 6.2 mi West 11.5 mph 23.0 mph N/A   Partly Cloudy
2:20 PM 46.4 °F 41.5 °F 37.4 °F 71% 30.06 in 6.2 mi West 10.4 mph - N/A   Partly Cloudy
2:50 PM 46.4 °F 41.1 °F 37.4 °F 71% 30.06 in 6.2 mi WNW 11.5 mph - N/A   Partly Cloudy
3:20 PM 46.4 °F 41.9 °F 37.4 °F 71% 30.06 in 6.2 mi West 9.2 mph - N/A   Scattered Clouds
3:50 PM 46.4 °F 41.9 °F 37.4 °F 71% 30.06 in 6.2 mi West 9.2 mph - N/A   Scattered Clouds
4:20 PM 46.4 °F 42.4 °F 39.2 °F 76% 30.06 in 6.2 mi West 8.1 mph - N/A   Scattered Clouds
4:50 PM 46.4 °F 41.9 °F 39.2 °F 76% 30.06 in 6.2 mi West 9.2 mph - N/A   Scattered Clouds
5:20 PM 44.6 °F 40.7 °F 39.2 °F 81% 30.06 in 6.2 mi West 6.9 mph - N/A   Scattered Clouds
5:50 PM 44.6 °F 40.2 °F 39.2 °F 81% 30.06 in 6.2 mi West 8.1 mph - N/A   Partly Cloudy
6:20 PM 44.6 °F 40.7 °F 39.2 °F 81% 30.06 in 6.2 mi WNW 6.9 mph - N/A   Partly Cloudy
6:50 PM 42.8 °F 39.3 °F 39.2 °F 87% 30.06 in 6.2 mi WNW 5.8 mph - N/A   Partly Cloudy
7:20 PM 42.8 °F 38.0 °F 37.4 °F 81% 30.06 in 6.2 mi WNW 8.1 mph - N/A   Partly Cloudy
7:50 PM 42.8 °F 38.0 °F 37.4 °F 81% 30.06 in 6.2 mi WNW 8.1 mph - N/A   Partly Cloudy
8:20 PM 42.8 °F 38.0 °F 35.6 °F 76% 30.06 in 6.2 mi WNW 8.1 mph - N/A   Partly Cloudy
8:50 PM 42.8 °F 38.0 °F 35.6 °F 76% 30.06 in 6.2 mi WNW 8.1 mph - N/A   Partly Cloudy
9:20 PM 41.0 °F 36.4 °F 35.6 °F 81% 30.06 in 6.2 mi WNW 6.9 mph - N/A   Partly Cloudy
9:50 PM 41.0 °F 36.4 °F 35.6 °F 81% 30.06 in - WNW 6.9 mph - N/A   Clear